O3B FM11

Last updated on Sat Sep 12 2026 00:03:21 GMT+0000 (Coordinated Universal Time)

1 40349U 14083B 26254.52476198 -.00000028 00000+0 00000+0 0 9996 2 40349 0.0542 347.9686 0002194 168.4705 203.5705 5.00115545214222
UTC large
Height (km)
Speed (km/s)
/
Latitude / Longitude
Inclination (degrees)
Orbital Period (minutes)
Azimuth
Elevation
Range (km)
Doppler Factor

Next 0 passes for location: London (51.5072 / 0.1276)

No passes found over London.
O3B FM11